Regional Weather Roundup
Issued by NWS

Home | Current Version | Previous Version | Text Only | Print | Product List | Glossary Off
Versions: 1 2 3 4 5 6 7 8 9 10 11 12 13 14 15 16 17 18 19 20 21 22 23 24 25 26 27

000
ASUS45 KTFX 011710
RWRMT
MONTANA REGIONAL WEATHER ROUNDUP
NATIONAL WEATHER SERVICE GREAT FALLS MT
1000 AM MST THU DEC 01 2016

NOTE: "FAIR" INDICATES FEW OR NO CLOUDS BELOW 12000 FEET WITH NO
SIGNIFICANT WEATHER AND/OR OBSTRUCTIONS TO VISIBILITY.

MTZ001>007-043-011800-
WEST OF THE DIVIDE

CITY           SKY/WX    TMP DP  RH WIND       PRES   REMARKS
KALISPELL      FOG       32  30  92 CALM      29.97S VSB 1/2
MISSOULA       LGT SNOW  30  29  96 CALM      30.04R FOG
BUTTE          CLOUDY    19  17  92 CALM      29.95S
MULLAN PASS    SNOW      23  21  92 VRB5      29.93R VSB 1/2
ANACONDA         N/A     30  19  64 SW9       29.96  WCI  22
DEER LODGE       N/A     27  23  86 CALM      29.98S
EUREKA           N/A     32  28  86 NW5       30.01R
HAMILTON         N/A     36  25  64 S9        30.02S WCI  29
LIBBY            N/A     30  30 100 CALM      30.01R
PLAINS           N/A     31  28  88 CALM      30.03
RONAN            N/A     33  31  93 CALM      30.04R
$$

MTZ008-052>055-011800-
SOUTHWEST MONTANA

CITY           SKY/WX    TMP DP  RH WIND       PRES   REMARKS
BOZEMAN        CLOUDY    28  23  81 SE6       29.98R WCI  22
DILLON         CLOUDY    29  17  61 SW15      29.96S WCI  18
W YELLOWSTONE  CLOUDY    19  18  93 CALM      29.96R
ENNIS          MOSUNNY   28  23  80 SE10      30.01S HAZE    WCI  19
THREE FORKS      N/A     28  28 100 CALM      29.97R
$$

MTZ009-010-012-014-046-048-049-054-011800-
EAST SLOPES AND CENTRAL MONTANA

CITY           SKY/WX    TMP DP  RH WIND       PRES   REMARKS
CUT BANK       CLOUDY    29  23  78 N7        29.89R WCI  22
GREAT FALLS    CLOUDY    36  22  56 SW13      29.90R WCI  27
MALMSTROM AFB  SUNNY     36  23  60 SW14      29.91R WCI  27
HELENA         CLOUDY    36  23  59 SW6       29.96R WCI  31
AUGUSTA        PTSUNNY   35  22  59 W10       29.88R WCI  27
BOWMANS CRNR   CLOUDY    32  23  70 SW10      29.88R WCI  23
CHOTEAU          N/A     36  23  60 CALM      29.91R
CONRAD           N/A     32  29  89 CALM      29.92R
FAIRFIELD      CLOUDY    35  22  58 SW5       29.89R
POWER          PTSUNNY   33  23  68 W5        29.89R
RAYNESFORD       N/A     37  20  51 SW18G25   29.89R WCI  26
ULM              N/A     36  22  58 W10G20    29.91R WCI  28
$$

MTZ011-013-016-021-045-047-050-051-011800-
NORTH CENTRAL MONTANA

CITY           SKY/WX    TMP DP  RH WIND       PRES   REMARKS
HAVRE          MOSUNNY   25  22  88 W6        29.92R WCI  18
LEWISTOWN      SUNNY     30  21  69 E3        29.90R
N BAR RANCH      N/A     34  19  55 VRB5      29.90S
CHINOOK          N/A     28  25  86 CALM      29.93R
DENTON           N/A     30  22  70 SE13G24   29.87R WCI  20
GEYSER           N/A     35  20  54 W12G20    29.88R WCI  27
GRASS RANGE    PTSUNNY   33  21  60 W15       29.87R WCI  23
JUDITH GAP       N/A     33  20  56 W10G16    29.89R WCI  25
ROY            CLOUDY    34  25  71 MISG      29.88R
STANFORD         N/A     35  20  53 W16       29.88R WCI  26
WINIFRED         N/A     35  21  56 MISG      29.89R
$$

MTZ017>020-022>027-061-062-011800-
NORTHEAST MONTANA

CITY           SKY/WX    TMP DP  RH WIND       PRES   REMARKS
GLASGOW        CLOUDY    25  22  88 SE9       29.94S WCI  15
JORDAN           N/A     25  21  85 CALM      29.93R
SIDNEY         MIX PCPN  29  26  89 CALM      30.00R
WOLF POINT     CLOUDY    28  24  85 E3        29.99R
PLENTYWOOD       N/A     27  25  93 SE5       29.98R
SCOBEY           N/A     26  20  78 NW1       29.94
$$

MTZ028>42-056>058-011800-
SOUTHCENTRAL AND SOUTHEAST MONTANA

CITY           SKY/WX    TMP DP  RH WIND       PRES   REMARKS
BAKER          CLOUDY    26  20  77 S3        29.95R
BILLINGS       MOSUNNY   35  15  44 SW14      29.93R WCI  26
LIVINGSTON     CLOUDY    32  21  64 W17       29.93R WCI  21
MILES CITY     CLOUDY    17  13  84 SE5       29.96R
BIG TIMBER     SUNNY     34  21  60 W20G26    29.94R WCI  22
EKALAKA          N/A     23  17  78 CALM      29.90
FORSYTH          N/A     23  21  93 CALM      29.95R
HARLOWTON        N/A     34  21  59 W21       29.90R WCI  22
LAUREL           N/A     34  13  42 CALM      29.92R
ROUNDUP          N/A     31  19  61 S9        29.84S WCI  23
$$

REGIONAL REPORTS...DAKOTAS

CITY           SKY/WX    TMP DP  RH WIND       PRES   REMARKS
WILLISTON      CLOUDY    28  24  85 CALM      30.00S
MINOT          CLOUDY    29  26  89 NW6       30.00R WCI  23
DICKINSON      CLOUDY    24  23  96 NW5       29.95R
BEACH          LGT SNOW  25  25 100 CALM      29.99R
CROSBY         CLOUDY    27  27 100 CALM      30.02S
TIOGA          CLOUDY    27  27 100 E5        30.00S
WATFORD CITY   CLOUDY    25  25 100 CALM      30.00R
BISMARCK       CLOUDY    30  28  92 NW5       30.00R
GRAND FORKS    CLOUDY    31  26  82 N12       29.97R WCI  22
FARGO          CLOUDY    33  28  81 N12       29.95R WCI  24
BUFFALO SD       N/A     26  21  81 W5        29.88R
RAPID CITY     SUNNY     30  22  72 CALM      29.94S
$$

REGIONAL REPORTS...WYOMING/IDAHO/WASHINGTON

CITY           SKY/WX    TMP DP  RH WIND       PRES   REMARKS
GILLETTE       CLOUDY    30  19  63 W13       29.93R WCI  20
SHERIDAN       CLOUDY    33  22  63 SE3       29.93R
BUFFALO WY     CLOUDY    35  16  45 S5        29.93R
CODY           CLOUDY    31  20  63 CALM      29.93R
YELLOWSTONE LA   N/A     18  16  92 CALM      29.91S
IDAHO FALLS    CLOUDY    27  24  89 SW14      30.05R WCI  16
SALMON         CLOUDY    27  21  80 W3        30.07R
BOISE          CLOUDY    33  30  88 NW6       30.17R WCI  28
SPOKANE        LGT SNOW  32  31  96 SW10      30.08R FOG     WCI  24
$$

REGIONAL REPORTS...ALBERTA

CITY           SKY/WX    TMP DP  RH WIND       PRES   REMARKS
EDMONTON       LGT SNOW  21  19  93 S7        29.93R FOG     WCI  13
CALGARY        LGT SNOW  30  27  86 VRB2      29.88R VSB 1
LETHBRIDGE     CLOUDY    30  28  93 VRB3      29.90R
MEDICINE HAT   LGT SNOW  23  19  86 W6        29.93R WCI  16
WATERTON GATE    N/A     34  18  51 SW14G21     N/A  WCI  24
CARDSTON         N/A     34  21  60 NW10        N/A  WCI  26
MILK RIVER       N/A     32  28  86 NW8         N/A  WCI  25
$$

REGIONAL REPORTS...SASKATCHEWAN

CITY           SKY/WX    TMP DP  RH WIND       PRES   REMARKS
SWIFT CURRENT  PTSUNNY   25  21  86 SW9       29.88R WCI  15
REGINA         CLOUDY    27  25  93 SE8       29.99R WCI  18
SASKATOON      CLOUDY    27  23  86 E3        29.99R
CYPRESS HILLS    N/A     28  27  93 W2          N/A
VAL MARIE        N/A     25  23  93 W1          N/A
ROCKGLEN         N/A     23  23 100 SW6         N/A  WCI  16
$$




USA.gov is the U.S. government's official web portal to all federal, state and local government web resources and services.